Ann Arbor, MI

2:49 PM EDT on September 26, 2016 (GMT -0400)
Ann Arbor Municipal

Weather History for KARB - April, 2013

Change the Weather History Date:

Sunday, April 28, 2013

  Actual Average Record
Temperature  
Mean Temperature 51 °F -  
Max Temperature 54 °F 63 °F 79 °F (2003)
Min Temperature 48 °F 37 °F 21 °F (2004)
Degree Days  
Heating Degree Days 14    
Growing Degree Days 1 (Base 50)    
Moisture  
Dew Point 49 °F    
Average Humidity 89    
Maximum Humidity 100    
Minimum Humidity 50    
Precipitation  
Precipitation 0.22 in - - ()
Sea Level Pressure  
Sea Level Pressure 29.91 in    
Wind  
Wind Speed 5 mph (East)    
Max Wind Speed 10 mph    
Max Gust Speed -    
Visibility 4 miles    
Events Fog , Rain    
Averages and records for this station are not official NWS values.
T = Trace of Precipitation, MM = Missing Value Source: NWS Daily Summary

Daily Weather History Graph

Daily Weather History Graph

Search for Another Location

Airport or City:

Trip Planner

Search our weather history database for the weather conditions in past years. The results will help you decide how hot, cold, wet, or windy it might be!

Date:

Astronomy

Apr. 28, 2013 Rise Set
Actual Time 6:34 AM EDT 8:31 PM EDT
Civil Twilight 6:03 AM EDT 9:01 PM EDT
Nautical Twilight 5:27 AM EDT 9:38 PM EDT
Astronomical Twilight 4:46 AM EDT 10:19 PM EDT
Moon No Moon Rise 8:47 AM EDT (4/28)
Length of Visible Light 14h 57m
Length of Day
13h 57m
Waning Gibbous, 89% of the Moon is Illuminated
Apr 28
Waning Gibbous
May 2
Last Quarter
May 9
New
May 18
First Quarter
May 25
Full

Hourly Weather History & Observations

Time (EDT) Temp. Dew Point Humidity Pressure Visibility Wind Dir Wind Speed Gust Speed Precip Events Conditions
12:53 AM 48.0 °F 37.9 °F 68% 30.10 in 10.0 mi ENE 3.5 mph - N/A   Overcast
1:53 AM 51.1 °F 35.1 °F 54% 30.08 in 10.0 mi Calm Calm - N/A   Overcast
2:53 AM 52.0 °F 34.0 °F 50% 30.04 in 10.0 mi ENE 3.5 mph - N/A   Overcast
3:53 AM 51.1 °F 34.0 °F 52% 30.02 in 10.0 mi East 4.6 mph - N/A   Overcast
4:53 AM 51.1 °F 35.1 °F 54% 30.01 in 10.0 mi Calm Calm - N/A   Overcast
5:53 AM 51.1 °F 36.0 °F 56% 30.01 in 10.0 mi ENE 3.5 mph - N/A   Overcast
6:53 AM 50.0 °F 37.0 °F 61% 29.99 in 10.0 mi NE 3.5 mph - N/A   Overcast
7:53 AM 50.0 °F 39.0 °F 66% 29.99 in 10.0 mi East 4.6 mph - N/A   Overcast
8:53 AM 51.1 °F 41.0 °F 68% 29.99 in 10.0 mi East 5.8 mph - N/A   Overcast
9:53 AM 53.1 °F 46.9 °F 80% 29.98 in 8.0 mi SE 8.1 mph - 0.01 in Rain Light Rain
10:09 AM 51.8 °F 48.2 °F 88% 29.97 in 5.0 mi SE 9.2 mph - 0.01 in Rain Light Rain
10:49 AM 51.8 °F 48.2 °F 88% 29.96 in 5.0 mi ESE 8.1 mph - 0.05 in Rain Light Rain
10:53 AM 52.0 °F 48.9 °F 89% 29.96 in 5.0 mi ESE 5.8 mph - 0.06 in Rain Light Rain
11:09 AM 51.8 °F 50.0 °F 94% 29.95 in 4.0 mi East 6.9 mph - 0.01 in Rain Light Rain
11:23 AM 51.8 °F 50.0 °F 94% 29.95 in 5.0 mi ESE 8.1 mph - 0.03 in Rain Light Rain
11:41 AM 51.8 °F 50.0 °F 94% 29.94 in 5.0 mi ESE 8.1 mph - 0.04 in Rain Light Rain
11:53 AM 52.0 °F 50.0 °F 93% 29.94 in 5.0 mi ESE 6.9 mph - 0.05 in Rain Light Rain
12:53 PM 52.0 °F 50.0 °F 93% 29.93 in 4.0 mi SE 10.4 mph - 0.00 in   Overcast
1:02 PM 51.8 °F 50.0 °F 94% 29.92 in 2.5 mi ESE 9.2 mph - N/A   Overcast
1:16 PM 51.8 °F 50.0 °F 94% 29.91 in 3.0 mi SE 9.2 mph - N/A   Overcast
1:53 PM 52.0 °F 51.1 °F 97% 29.91 in 4.0 mi ESE 8.1 mph - 0.00 in   Overcast
2:15 PM 51.8 °F 51.8 °F 100% 29.90 in 2.0 mi East 6.9 mph - 0.01 in   Overcast
2:28 PM 51.8 °F 51.8 °F 100% 29.90 in 1.5 mi East 5.8 mph - 0.01 in Rain Light Rain
2:40 PM 53.6 °F 51.8 °F 94% 29.90 in 1.2 mi East 4.6 mph - 0.02 in Rain Light Rain
2:53 PM 53.1 °F 51.1 °F 93% 29.90 in 1.2 mi East 5.8 mph - 0.03 in Rain Light Rain
3:08 PM 53.6 °F 51.8 °F 94% 29.89 in 1.5 mi East 6.9 mph - 0.00 in Rain Light Rain
3:20 PM 53.6 °F 51.8 °F 94% 29.89 in 2.0 mi East 6.9 mph - 0.01 in   Overcast
3:46 PM 53.6 °F 51.8 °F 94% 29.88 in 4.0 mi East 6.9 mph - 0.01 in Rain Light Rain
3:53 PM 53.1 °F 52.0 °F 96% 29.88 in 3.0 mi East 5.8 mph - 0.01 in Rain Light Rain
4:00 PM 53.6 °F 51.8 °F 94% 29.87 in 2.5 mi ESE 5.8 mph - 0.01 in Rain Light Rain
4:18 PM 53.6 °F 51.8 °F 94% 29.87 in 3.0 mi ESE 5.8 mph - 0.03 in Rain Light Rain
4:36 PM 53.6 °F 51.8 °F 94% 29.86 in 2.0 mi East 5.8 mph - 0.04 in Rain Light Rain
4:48 PM 53.6 °F 51.8 °F 94% 29.86 in 3.0 mi ESE 6.9 mph - 0.05 in Rain Light Rain
4:53 PM 54.0 °F 52.0 °F 93% 29.86 in 2.5 mi East 6.9 mph - 0.05 in Rain Light Rain
5:23 PM 53.6 °F 53.6 °F 100% 29.86 in 3.0 mi East 4.6 mph - 0.00 in   Overcast
5:33 PM 53.6 °F 53.6 °F 100% 29.85 in 2.5 mi East 3.5 mph - 0.00 in   Overcast
5:48 PM 53.6 °F 53.6 °F 100% 29.85 in 1.8 mi East 5.8 mph - 0.00 in   Overcast
5:53 PM 54.0 °F 53.1 °F 97% 29.86 in 1.5 mi East 5.8 mph - 0.00 in   Overcast
6:04 PM 53.6 °F 53.6 °F 100% 29.85 in 1.2 mi East 3.5 mph - 0.00 in Rain Light Rain
6:10 PM 53.6 °F 53.6 °F 100% 29.85 in 1.5 mi East 4.6 mph - 0.00 in Rain Light Rain
6:44 PM 53.6 °F 53.6 °F 100% 29.85 in 2.0 mi East 4.6 mph - 0.00 in   Overcast
6:53 PM 54.0 °F 53.1 °F 97% 29.86 in 2.0 mi East 4.6 mph - 0.00 in   Overcast
7:06 PM 53.6 °F 53.6 °F 100% 29.85 in 1.5 mi East 4.6 mph - N/A   Overcast
7:39 PM 53.6 °F 53.6 °F 100% 29.84 in 1.2 mi East 3.5 mph - 0.01 in   Overcast
7:53 PM 54.0 °F 53.1 °F 97% 29.84 in 1.2 mi ESE 4.6 mph - 0.01 in   Overcast
8:40 PM 53.6 °F 53.6 °F 100% 29.84 in 2.0 mi East 4.6 mph - N/A   Overcast
8:53 PM 54.0 °F 53.1 °F 97% 29.85 in 2.5 mi East 4.6 mph - N/A   Overcast
9:26 PM 53.6 °F 53.6 °F 100% 29.85 in 1.5 mi Calm Calm - N/A   Overcast
9:35 PM 53.6 °F 53.6 °F 100% 29.85 in 1.2 mi ESE 4.6 mph - N/A   Overcast
9:53 PM 54.0 °F 53.1 °F 97% 29.86 in 0.8 mi Calm Calm - N/A   Overcast
10:53 PM 54.0 °F 53.1 °F 97% 29.85 in 0.2 mi Calm Calm - N/A Fog Fog
11:53 PM 54.0 °F 53.1 °F 97% 29.85 in 0.2 mi Calm Calm - N/A Fog Fog